Fort Drum, NY

10:30 AM EDT on April 19, 2018 (GMT -0400)
Wheeler-Sack Army Air Field

Weather History for KGTB - December, 2013

Change the Weather History Date:

Sunday, December 29, 2013

  Actual Average Record
Temperature  
Mean Temperature 34 °F -  
Max Temperature 38 °F 28 °F 55 °F (2003)
Min Temperature 30 °F 12 °F -12 °F (2017)
Degree Days  
Heating Degree Days 31    
Moisture  
Dew Point 33 °F    
Average Humidity 88    
Maximum Humidity 100    
Minimum Humidity 74    
Precipitation  
Precipitation 0.00 in - - ()
Sea Level Pressure  
Sea Level Pressure 29.70 in    
Wind  
Wind Speed 10 mph (South)    
Max Wind Speed 13 mph    
Max Gust Speed 21 mph    
Visibility 10 miles    
Events      
Averages and records for this station are not official NWS values.
T = Trace of Precipitation, MM = Missing Value Source: NWS Daily Summary

Daily Weather History Graph

Daily Weather History Graph

Search for Another Location

Airport or City:

Astronomy

Dec. 29, 2013 Rise Set
Actual Time 7:37 AM EST 4:32 PM EST
Civil Twilight 7:04 AM EST 5:05 PM EST
Nautical Twilight 6:27 AM EST 5:42 PM EST
Astronomical Twilight 5:52 AM EST 6:17 PM EST
Moon 4:15 AM EST (12/29) 2:11 PM EST (12/29)
Length of Visible Light 10h 01m
Length of Day
8h 55m
Waning Crescent, 11% of the Moon is Illuminated
Dec 29
Waning Crescent
Jan 1
New
Jan 7
First Quarter
Jan 15
Full
Jan 24
Last Quarter

Hourly Weather History & Observations

Time (EST) Temp. Windchill Dew Point Humidity Pressure Visibility Wind Dir Wind Speed Gust Speed Precip Events Conditions
12:58 AM 31.3 °F 22.7 °F 30.2 °F 96% 29.94 in 10.0 mi SSE 10.4 mph - N/A   Partly Cloudy
1:58 AM 30.9 °F 22.2 °F 29.7 °F 95% 29.91 in 10.0 mi SSE 10.4 mph - N/A   Partly Cloudy
3:59 AM 33.6 °F 27.5 °F 28.8 °F 82% 29.91 in 10.0 mi South 6.9 mph - N/A   Clear
4:58 AM 32.2 °F 25.0 °F 28.4 °F 86% 29.89 in 10.0 mi SSE 8.1 mph - N/A   Clear
5:58 AM 31.6 °F 23.1 °F 28.8 °F 89% 29.86 in 10.0 mi SSE 10.4 mph - N/A   Clear
6:58 AM 32.0 °F 23.0 °F 28.9 °F 88% 29.86 in 10.0 mi SE 11.5 mph - N/A   Clear
7:58 AM 32.5 °F 24.8 °F 28.8 °F 86% 29.86 in 10.0 mi SSE 9.2 mph - N/A   Clear
8:58 AM 35.1 °F 27.4 °F 29.5 °F 80% 29.83 in 10.0 mi SSE 10.4 mph - N/A   Clear
9:58 AM 35.8 °F 28.3 °F 29.8 °F 79% 29.81 in 10.0 mi SSE 10.4 mph - N/A   Partly Cloudy
10:58 AM 36.5 °F 29.7 °F 30.4 °F 78% 29.80 in 10.0 mi SSE 9.2 mph - N/A   Clear
11:58 AM 36.7 °F 29.4 °F 30.2 °F 77% 29.75 in 10.0 mi SSE 10.4 mph - N/A   Clear
12:58 PM 36.7 °F 29.9 °F 30.4 °F 78% 29.71 in 10.0 mi SE 9.2 mph - N/A   Clear
1:58 PM 37.2 °F 30.0 °F 30.4 °F 76% 29.67 in 10.0 mi SE 10.4 mph - N/A   Scattered Clouds
2:58 PM 37.9 °F 32.1 °F 30.4 °F 74% 29.65 in 10.0 mi SSE 8.1 mph - N/A   Clear
3:58 PM 38.8 °F 33.8 °F 34.2 °F 83% 29.63 in 10.0 mi SSE 6.9 mph - N/A   Clear
4:58 PM 36.1 °F 28.2 °F 35.1 °F 96% 29.62 in 10.0 mi SE 11.5 mph - N/A   Clear
5:58 PM 35.6 °F 30.7 °F 35.2 °F 99% 29.62 in 10.0 mi SSE 5.8 mph - N/A   Clear
6:13 PM 35.6 °F 29.2 °F 33.8 °F 93% 29.59 in 10.0 mi SE 8.1 mph - N/A   Mostly Cloudy
6:48 PM 35.6 °F 29.2 °F 33.8 °F 93% 29.59 in 10.0 mi SSE 8.1 mph - N/A   Mostly Cloudy
6:58 PM 34.7 °F 27.5 °F 34.5 °F 99% 29.61 in 10.0 mi SSE 9.2 mph - N/A   Scattered Clouds
7:58 PM 35.2 °F 28.8 °F 35.1 °F 99% 29.60 in 10.0 mi South 8.1 mph - N/A   Overcast
8:23 PM 35.6 °F 29.9 °F 35.6 °F 100% 29.58 in 10.0 mi SSE 6.9 mph - N/A   Overcast
8:58 PM 38.7 °F 32.4 °F 37.4 °F 95% 29.60 in 10.0 mi SW 9.2 mph - N/A   Overcast
9:58 PM 38.3 °F 30.9 °F 35.8 °F 91% 29.60 in 10.0 mi SW 11.5 mph - N/A   Overcast
10:18 PM 37.4 °F 29.3 °F 35.6 °F 93% 29.58 in 10.0 mi WSW 12.7 mph 19.6 mph N/A   Mostly Cloudy
10:33 PM 37.4 °F 29.8 °F 35.6 °F 93% 29.59 in 10.0 mi WSW 11.5 mph 17.3 mph N/A   Mostly Cloudy
10:38 PM 37.4 °F 30.8 °F 35.6 °F 93% 29.59 in 10.0 mi WSW 9.2 mph 17.3 mph N/A   Mostly Cloudy
10:58 PM 37.6 °F 29.6 °F 35.8 °F 93% 29.61 in 10.0 mi SW 12.7 mph 20.7 mph N/A   Overcast
11:08 PM 37.4 °F 31.4 °F 35.6 °F 93% 29.59 in 10.0 mi SW 8.1 mph - N/A   Overcast
11:43 PM 37.4 °F 29.8 °F 32.0 °F 81% 29.60 in 10.0 mi WSW 11.5 mph - N/A   Overcast
11:58 PM 37.0 °F 28.9 °F 32.4 °F 83% 29.62 in 10.0 mi WSW 12.7 mph 20.7 mph N/A   Overcast